Date,TemperatureHighF,TemperatureAvgF,TemperatureLowF,DewpointHighF,DewpointAvgF,DewpointLowF,HumidityHigh,HumidityAvg,HumidityLow,PressureMaxIn,PressureMinIn,WindSpeedMaxMPH,WindSpeedAvgMPH,GustSpeedMaxMPH,PrecipitationSumIn
2012-12-1,30.6,29.5,27.4,28.4,22.6,13.7,91,76,52,30.59,30.45,7,1,7,0.00
2012-12-2,52.6,40.5,30.4,47.4,37.0,28.2,93,87,74,30.45,29.97,9,1,9,0.04
2012-12-3,59.8,48.9,35.5,47.4,42.2,32.7,92,79,56,30.25,29.95,9,2,9,0.00
2012-12-4,55.8,45.4,33.8,53.5,43.1,31.9,95,92,90,30.27,29.91,7,1,7,0.00
2012-12-5,58.7,49.9,32.6,53.9,39.1,17.6,92,68,47,30.07,29.76,14,4,14,0.00
2012-12-6,42.7,32.7,25.7,22.2,19.7,17.5,83,60,40,30.27,30.07,7,1,7,0.00
2012-12-7,45.0,37.3,24.7,41.2,31.5,19.4,94,80,65,30.25,29.98,5,1,5,0.04
2012-12-8,44.6,42.8,41.4,43.3,41.4,40.3,97,95,93,29.99,29.80,5,1,5,0.36
2012-12-9,47.0,43.0,40.0,43.3,37.8,32.1,97,82,63,30.25,29.89,7,2,7,0.08
2012-12-10,58.0,48.3,42.8,57.1,47.0,40.5,97,95,90,30.12,29.50,10,2,10,0.50
2012-12-11,50.4,42.4,33.5,42.6,35.2,25.0,91,76,63,30.08,29.59,8,2,8,0.01
2012-12-12,39.8,32.8,28.8,26.7,24.3,22.3,81,71,56,30.37,30.08,6,1,6,0.00
2012-12-13,49.9,34.4,27.2,32.3,25.8,22.7,87,73,40,30.42,30.23,4,0,4,0.00
2012-12-14,50.4,37.6,26.6,28.5,25.4,20.4,88,64,31,30.23,29.97,9,2,9,0.00
2012-12-15,47.2,36.0,31.7,28.5,25.5,22.5,82,66,43,30.29,30.09,7,2,7,0.00
2012-12-16,37.3,34.5,30.4,35.6,28.4,21.6,94,79,66,30.28,30.03,10,3,10,0.22
2012-12-17,45.5,41.8,37.3,44.7,40.4,35.4,97,95,91,30.03,29.74,11,3,11,0.65
2012-12-18,51.7,46.1,41.4,50.8,45.1,39.9,98,96,93,29.75,29.32,10,4,10,1.00
2012-12-19,44.3,41.3,37.4,40.3,35.7,31.1,96,81,68,29.96,29.35,9,2,9,0.00
2012-12-20,46.6,38.4,32.0,36.5,32.1,28.4,89,78,62,30.14,29.96,6,1,6,0.01
2012-12-21,53.6,45.3,39.2,50.6,41.5,33.7,96,87,72,29.98,29.03,15,6,16,0.47
2012-12-22,40.5,35.5,29.2,33.9,26.2,15.8,86,69,53,29.55,29.16,17,6,17,0.00
2012-12-23,40.9,33.6,26.3,24.5,20.3,14.9,69,58,43,29.79,29.55,15,5,15,0.00
2012-12-24,44.3,34.5,29.7,23.5,21.3,18.2,75,59,40,29.99,29.78,11,2,11,0.00
2012-12-25,34.4,31.3,26.3,28.8,24.7,18.7,86,77,63,30.15,29.91,6,1,6,0.01
2012-12-26,40.5,31.6,21.2,34.9,24.0,14.2,92,74,54,30.25,29.88,13,3,13,0.16
2012-12-27,46.6,38.4,30.1,45.3,36.7,28.4,95,93,89,29.88,29.15,19,6,19,1.59
2012-12-28,40.5,32.4,27.5,29.4,24.5,21.2,91,73,57,29.93,29.52,11,2,11,0.00
2012-12-29,36.4,31.1,27.2,34.5,27.3,22.6,95,86,75,29.93,29.31,10,2,10,0.46
2012-12-30,30.2,26.5,20.9,27.7,19.9,10.5,95,77,60,29.87,29.33,13,3,13,0.00
2012-12-31,34.6,27.3,18.4,26.1,19.3,10.2,78,72,64,29.95,29.68,12,4,12,0.01